Home   Weather   Stoke-on-Trent   Past weeks

Flag for United Kingdom Past Weather in Stoke-on-Trent, England, United Kingdom — Yesterday and Last 2 Weeks

Now
48 °F

Drizzle. Partly sunny.


Feels Like: 45 °F
Forecast: 44 / 48 °F
Wind: 8 mph from Northwest

Location: Manchester Airport

Current Time: Jan 16, 2017 at 1:20:07 pm

Latest Report: Jan 16, 2017 at 12:50 pm


Visibility: 3 mi

Pressure: 30.33 "Hg

Humidity: 94%

Dew Point: 46 °F

Location of Stoke-on-TrentLocation

Past Weather in Stoke-on-Trent — Graph

°F

Stoke-on-Trent Temperature Yesterday

Maximum temperature yesterday: 48 °F (at 11:50 am)
Minimum temperature yesterday: 39 °F (at 12:20 am)
Average temperature yesterday: 46 °F

High & Low Weather Summary for the Past Weeks

 TemperatureHumidityPressure
High52 °F (Jan 11, 3:20 am)100% (Jan 2, 11:50 pm)30.57 "Hg (Jan 2, 11:50 pm)
Low23 °F (Jan 5, 6:50 am)53% (Jan 11, 2:20 pm)29.45 "Hg (Jan 12, 4:20 pm)
Average41 °F87%30.16 "Hg
* Reported Jan 1 11:20 am — Jan 16 11:50 am, Stoke-on-Trent, Weather by CustomWeather, © 2017

Note: Actual official high and low records may vary slightly from our data, if they occured in-between our weather recording intervals... More about our weather records

Advertising

Stoke-on-Trent Weather History for the Previous 24 Hours

Scroll right to see more
 ConditionsComfort  
Time TempWeatherWind HumidityBarometerVisibility
11:50 am
Mon, Jan 16
46 °FDrizzle. Partly sunny.8 mph100%30.33 "Hg4 mi
11:20 am46 °FDrizzle. Mostly cloudy.9 mph100%30.33 "Hg2 mi
10:50 am46 °FDrizzle. Partly sunny.8 mph100%30.33 "Hg3 mi
10:20 am46 °FPartly sunny.10 mph100%30.33 "Hg4 mi
9:50 am46 °FFog.9 mph100%30.33 "Hg2 mi
9:20 am46 °FDrizzle. Fog.10 mph100%30.30 "Hg2 mi
8:50 am46 °FDrizzle. Fog.9 mph100%30.30 "Hg1 mi
8:20 am46 °FDrizzle. Fog.8 mph100%30.30 "Hg1 mi
7:50 am46 °FDrizzle. Fog.9 mph100%30.30 "Hg1 mi
7:20 am48 °FDrizzle. Fog.8 mph94%30.30 "Hg2 mi
6:50 am48 °FDrizzle. Fog.9 mph94%30.27 "Hg1 mi
6:20 am48 °FPassing clouds.10 mph94%30.27 "Hg1 mi
5:50 am48 °FDrizzle. Low clouds.8 mph94%30.27 "Hg1 mi
5:20 am46 °FFog.8 mph100%30.27 "Hg2 mi
4:50 am46 °FRain. Low clouds.7 mph100%30.27 "Hg1 mi
4:20 am46 °FRain. Low clouds.8 mph100%30.27 "Hg1 mi
3:50 am46 °FFog.7 mph100%30.27 "Hg0 mi
3:20 am46 °FFog.7 mph100%30.27 "Hg1 mi
2:50 am46 °FFog.6 mph100%30.27 "Hg1 mi
2:20 am46 °FFog.6 mph100%30.27 "Hg1 mi
1:50 am46 °FDrizzle. Low clouds.6 mph100%30.27 "Hg2 mi
12:50 am46 °FDrizzle. Low clouds.6 mph100%30.27 "Hg1 mi
12:20 am46 °FDrizzle. Low clouds.7 mph100%30.27 "Hg1 mi
11:50 pm
Sun, Jan 15
48 °FFog.7 mph94%30.27 "Hg1 mi
11:20 pm48 °FFog.7 mph94%30.27 "Hg1 mi
10:50 pm48 °FLight rain. Low clouds.6 mph94%30.27 "Hg2 mi
10:20 pm48 °FFog.6 mph94%30.27 "Hg3 mi
9:50 pm48 °FLow clouds.7 mph94%30.24 "Hg4 mi
9:20 pm48 °FFog.7 mph94%30.24 "Hg3 mi
8:50 pm48 °FRain. Low clouds.7 mph94%30.24 "Hg3 mi
8:20 pm48 °FFog.8 mph94%30.24 "Hg3 mi
7:50 pm48 °FDrizzle. Low clouds.8 mph94%30.24 "Hg3 mi
7:20 pm48 °FDrizzle. Low clouds.9 mph94%30.21 "Hg3 mi
6:50 pm48 °FLight rain. Low clouds.9 mph94%30.21 "Hg4 mi
6:20 pm48 °FRain. Low clouds.9 mph94%30.21 "Hg2 mi
5:50 pm48 °FLow clouds.9 mph94%30.21 "Hg4 mi
5:20 pm48 °FFog.9 mph94%30.21 "Hg1 mi
4:50 pm48 °FFog.10 mph94%30.18 "Hg1 mi
4:20 pm48 °FFog.13 mph94%30.18 "Hg1 mi
3:50 pm48 °FFog.13 mph100%30.18 "Hg2 mi
3:20 pm48 °FDrizzle. Low clouds.12 mph100%30.18 "Hg2 mi
2:50 pm48 °FLight rain. Low clouds.13 mph94%30.15 "Hg4 mi
2:20 pm48 °FDrizzle. Low clouds.13 mph94%30.15 "Hg3 mi
1:50 pm48 °FLight rain. Low clouds.15 mph94%30.15 "Hg6 mi
1:20 pm48 °FLight rain. Low clouds.14 mph94%30.15 "Hg4 mi
Weather by CustomWeather, © 2017

See weather overviewHow to use our weather pages